User: anonymous   Login
Location: Unspecified
(0.0000°N, 0.0000°E)
Time: 11:34:41
(UTC+00:00)
Language:

ISS - Orbit

View from above orbital plane
View from above orbital plane
View from above satellite
View from above satellite

Ground track
Ground track

The orbit data is extracted from the following two-line orbital elements,

1 25544U 98067A   16180.40265313  .00003139  00000-0  53534-4 0  9990
2 25544  51.6454   2.0836 0000816  32.6458  42.9083 15.54696399  6738
Epoch (UTC): 28 June 2016 09:39:49
Eccentricity: 0.0000816
inclination: 51.6454°
perigee height: 402 km
apogee height: 403 km
right ascension of ascending node: 2.0836°
argument of perigee: 32.6458°
revolutions per day: 15.54696399
mean anomaly at epoch: 42.9083°
orbit number at epoch: 673

The dashed part of the orbit path shows where the satellite is in the earth's shadow,  

DLR